Mojave, CA

3:58 PM PST on December 08, 2019 (GMT -0800)
Mojave

Weather History for KMHV - October, 2019

Change the Weather History Date:

Sunday, October 13, 2019

  Actual Average Record
Temperature  
Mean Temperature 59 °F -  
Max Temperature 77 °F 78 °F 94 °F (1971)
Min Temperature 41 °F 51 °F 40 °F (1969)
Degree Days  
Heating Degree Days 6    
Growing Degree Days 9 (Base 50)    
Moisture  
Dew Point 5 °F    
Average Humidity 12    
Maximum Humidity 24    
Minimum Humidity 5    
Precipitation  
Precipitation 0.00 in - - ()
Sea Level Pressure  
Sea Level Pressure 29.91 in    
Wind  
Wind Speed 6 mph (West)    
Max Wind Speed 13 mph    
Max Gust Speed 13 mph    
Visibility 10 miles    
Events      
Averages and records for this station are not official NWS values.
T = Trace of Precipitation, MM = Missing Value Source: NWS Daily Summary

Daily Weather History Graph

Daily Weather History Graph

Search for Another Location

Airport or City:

Astronomy

Oct. 13, 2019 Rise Set
Actual Time 6:56 AM PDT 6:20 PM PDT
Civil Twilight 6:31 AM PDT 6:45 PM PDT
Nautical Twilight 6:01 AM PDT 7:15 PM PDT
Astronomical Twilight 5:32 AM PDT 7:44 PM PDT
Moon 6:43 PM PDT (10/13) 6:38 AM PDT (10/13)
Length of Visible Light 12h 14m
Length of Day
11h 23m
Full, 100% of the Moon is Illuminated
Oct 13
Full
Oct 13
Full
Oct 21
Last Quarter
Oct 27
New
Nov 4
First Quarter

Hourly Weather History & Observations

Time (PDT) Temp. Windchill Dew Point Humidity Pressure Visibility Wind Dir Wind Speed Gust Speed Precip Events Conditions
12:00 AM 51.8 °F - -5.8 °F 9% 29.94 in 10.0 mi NW 8.1 mph - N/A   Overcast
12:20 AM 48.2 °F - -5.8 °F 10% 29.94 in 10.0 mi West 5.8 mph - N/A   Overcast
12:40 AM 48.2 °F - -5.8 °F 10% 29.94 in 10.0 mi West 4.6 mph - N/A   Mostly Cloudy
1:00 AM 46.4 °F 42.9 °F -5.8 °F 11% 29.93 in 10.0 mi NW 6.9 mph - N/A   Mostly Cloudy
1:20 AM 46.4 °F 43.5 °F -5.8 °F 11% 29.94 in 10.0 mi WNW 5.8 mph - N/A   Overcast
1:40 AM 46.4 °F 44.3 °F -5.8 °F 11% 29.94 in 10.0 mi WNW 4.6 mph - N/A   Overcast
2:00 AM 46.4 °F 42.4 °F -5.8 °F 11% 29.94 in 10.0 mi NW 8.1 mph - N/A   Overcast
2:20 AM 46.4 °F 41.9 °F -5.8 °F 11% 29.93 in 10.0 mi NW 9.2 mph - N/A   Overcast
2:40 AM 46.4 °F 41.5 °F -5.8 °F 11% 29.93 in 10.0 mi NNW 10.4 mph - N/A   Overcast
3:00 AM 48.2 °F - -5.8 °F 10% 29.93 in 10.0 mi NNW 9.2 mph - N/A   Overcast
3:20 AM 46.4 °F 41.9 °F -5.8 °F 11% 29.92 in 10.0 mi NW 9.2 mph - N/A   Overcast
3:40 AM 46.4 °F 41.9 °F -5.8 °F 11% 29.92 in 10.0 mi NW 9.2 mph - N/A   Overcast
4:00 AM 46.4 °F 41.9 °F -5.8 °F 11% 29.92 in 10.0 mi NW 9.2 mph - N/A   Mostly Cloudy
4:20 AM 46.4 °F 41.9 °F -5.8 °F 11% 29.92 in 10.0 mi NNW 9.2 mph - N/A   Overcast
4:40 AM 46.4 °F 45.2 °F -4.0 °F 12% 29.92 in 10.0 mi NNW 3.5 mph - N/A   Overcast
5:00 AM 46.4 °F - -4.0 °F 12% 29.92 in 10.0 mi Calm Calm - N/A   Overcast
5:20 AM 44.6 °F - -4.0 °F 13% 29.92 in 10.0 mi Calm Calm - N/A   Overcast
5:40 AM 42.8 °F - -5.8 °F 13% 29.92 in 10.0 mi Calm Calm - N/A   Overcast
6:00 AM 41.0 °F 39.0 °F -5.8 °F 14% 29.92 in 10.0 mi NW 3.5 mph - N/A   Overcast
6:20 AM 42.8 °F 40.1 °F -5.8 °F 13% 29.93 in 10.0 mi NW 4.6 mph - N/A   Overcast
6:40 AM 41.0 °F - -5.8 °F 14% 29.93 in 10.0 mi Calm Calm - N/A   Mostly Cloudy
7:00 AM 41.0 °F 39.0 °F -5.8 °F 14% 29.93 in 10.0 mi NW 3.5 mph - N/A   Clear
7:20 AM 42.8 °F 40.1 °F -5.8 °F 13% 29.93 in 9.0 mi NW 4.6 mph - N/A   Clear
7:40 AM 46.4 °F 44.3 °F -4.0 °F 12% 29.93 in 10.0 mi NW 4.6 mph - N/A   Clear
8:00 AM 50.0 °F - -2.2 °F 12% 29.94 in 10.0 mi Calm Calm - N/A   Clear
8:20 AM 53.6 °F - -2.2 °F 10% 29.95 in 10.0 mi Calm Calm - N/A   Clear
8:40 AM 55.4 °F - -2.2 °F 9% 29.96 in 10.0 mi SSE 4.6 mph - N/A   Clear
9:00 AM 57.2 °F - -2.2 °F 9% 29.96 in 10.0 mi Calm Calm - N/A   Clear
9:20 AM 59.0 °F - -0.4 °F 9% 29.96 in 10.0 mi Calm Calm - N/A   Clear
9:40 AM 60.8 °F - -2.2 °F 8% 29.96 in 10.0 mi Calm Calm - N/A   Clear
10:00 AM 62.6 °F - -2.2 °F 7% 29.96 in 10.0 mi Calm Calm - N/A   Clear
10:20 AM 64.4 °F - -0.4 °F 7% 29.96 in 10.0 mi SSE 4.6 mph - N/A   Clear
10:40 AM 64.4 °F - -2.2 °F 7% 29.96 in 10.0 mi Variable 3.5 mph - N/A   Clear
11:00 AM 66.2 °F - -2.2 °F 6% 29.96 in 10.0 mi ESE 4.6 mph - N/A   Clear
11:20 AM 68.0 °F - -2.2 °F 6% 29.95 in 10.0 mi Calm Calm - N/A   Clear
11:40 AM 69.8 °F - -2.2 °F 6% 29.95 in 10.0 mi Calm Calm - N/A   Clear
12:00 PM 69.8 °F - -2.2 °F 6% 29.94 in 10.0 mi Calm Calm - N/A   Clear
12:20 PM 71.6 °F - -2.2 °F 5% 29.93 in 10.0 mi Variable 3.5 mph - N/A   Clear
12:40 PM 71.6 °F - -0.4 °F 6% 29.92 in 10.0 mi Variable 4.6 mph - N/A   Clear
1:00 PM 73.4 °F - 1.4 °F 6% 29.91 in 10.0 mi Calm Calm - N/A   Clear
1:20 PM 73.4 °F - 1.4 °F 6% 29.90 in 10.0 mi NE 3.5 mph - N/A   Clear
1:40 PM 73.4 °F - 6.8 °F 8% 29.89 in 10.0 mi Calm Calm - N/A   Clear
2:00 PM 75.2 °F - 6.8 °F 7% 29.89 in 10.0 mi Calm Calm - N/A   Clear
2:20 PM 75.2 °F - 8.6 °F 8% 29.88 in 10.0 mi Calm Calm - N/A   Clear
2:40 PM 77.0 °F - 12.2 °F 9% 29.87 in 10.0 mi Variable 3.5 mph - N/A   Clear
3:00 PM 75.2 °F - 14.0 °F 10% 29.87 in 10.0 mi Calm Calm - N/A   Clear
3:20 PM 75.2 °F - 12.2 °F 9% 29.87 in 10.0 mi SSE 5.8 mph - N/A   Clear
3:40 PM 77.0 °F - 14.0 °F 9% 29.87 in 10.0 mi South 9.2 mph - N/A   Clear
4:00 PM 75.2 °F - 14.0 °F 10% 29.87 in 10.0 mi SE 5.8 mph - N/A   Clear
4:20 PM 75.2 °F - 12.2 °F 9% 29.86 in 10.0 mi Calm Calm - N/A   Clear
4:40 PM 77.0 °F - 14.0 °F 9% 29.86 in 10.0 mi South 5.8 mph 12.7 mph N/A   Clear
5:00 PM 75.2 °F - 14.0 °F 10% 29.85 in 10.0 mi SE 5.8 mph 11.5 mph N/A   Clear
5:20 PM 75.2 °F - 12.2 °F 9% 29.85 in 10.0 mi South 8.1 mph - N/A   Clear
5:40 PM 75.2 °F - 14.0 °F 10% 29.85 in 10.0 mi South 9.2 mph - N/A   Clear
6:00 PM 73.4 °F - 15.8 °F 11% 29.85 in 10.0 mi SSW 8.1 mph - N/A   Clear
6:20 PM 71.6 °F - 26.6 °F 19% 29.86 in 10.0 mi SW 10.4 mph - N/A   Clear
6:40 PM 69.8 °F - 28.4 °F 21% 29.86 in 10.0 mi SW 12.7 mph - N/A   Clear
7:00 PM 68.0 °F - 28.4 °F 23% 29.87 in 10.0 mi WSW 12.7 mph - N/A   Clear
7:20 PM 66.2 °F - 28.4 °F 24% 29.87 in 10.0 mi WSW 9.2 mph - N/A   Partly Cloudy
7:40 PM 64.4 °F - 26.6 °F 24% 29.87 in 10.0 mi WSW 9.2 mph - N/A   Partly Cloudy
8:00 PM 64.4 °F - 19.4 °F 18% 29.87 in 10.0 mi WSW 11.5 mph - N/A   Clear
8:20 PM 64.4 °F - 19.4 °F 18% 29.87 in 10.0 mi WSW 9.2 mph - N/A   Partly Cloudy
8:40 PM 64.4 °F - 19.4 °F 18% 29.88 in 10.0 mi WSW 11.5 mph - N/A   Partly Cloudy
9:00 PM 62.6 °F - 19.4 °F 19% 29.88 in 10.0 mi WSW 10.4 mph - N/A   Partly Cloudy
9:20 PM 62.6 °F - 19.4 °F 19% 29.88 in 10.0 mi West 11.5 mph - N/A   Clear
9:40 PM 64.4 °F - 19.4 °F 18% 29.88 in 10.0 mi WSW 11.5 mph - N/A   Clear
10:20 PM 62.6 °F - 19.4 °F 19% 29.88 in 10.0 mi West 12.7 mph - N/A   Clear
10:40 PM 62.6 °F - 19.4 °F 19% 29.89 in 10.0 mi West 12.7 mph - N/A   Clear
11:00 PM 60.8 °F - 19.4 °F 20% 29.89 in 10.0 mi West 10.4 mph - N/A   Clear
11:20 PM 59.0 °F - 19.4 °F 22% 29.89 in 10.0 mi WSW 8.1 mph - N/A   Partly Cloudy
11:40 PM 59.0 °F - 19.4 °F 22% 29.89 in 10.0 mi SW 11.5 mph - N/A   Partly Cloudy